Regional Weather Roundup
Issued by NWS

Home | Current Version | Previous Version | Graphics & Text | Print | Product List | Glossary Off
Versions: 1 2 3 4 5 6 7 8 9 10 11 12 13 14 15 16 17 18 19 20 21 22 23 24 25 26 27 28 29 30 31 32 33 34 35 36 37 38 39 40 41 42 43 44 45 46 47 48 49 50

000
ASUS43 KMKX 230211
RWRWI

WISCONSIN REGIONAL WEATHER ROUNDUP
NATIONAL WEATHER SERVICE MILWAUKEE/SULLIVAN WI
900 PM CDT WED MAR 22 2017

NOTE: "FAIR" INDICATES FEW OR NO CLOUDS BELOW 12,000 FEET WITH NO
SIGNIFICANT WEATHER AND/OR OBSTRUCTIONS TO VISIBILITY.

WIZ001-002-006>008-014>016-023>028-230300-
NORTHWEST WISCONSIN

CITY           SKY/WX    TMP DP  RH WIND       PRES   REMARKS
SUPERIOR ARPT  CLOUDY    30  24  77 E7        30.36F WCI  23
ASHLAND        CLEAR     23  17  78 NE3       30.39F
HAYWARD        CLOUDY    33  10  38 SE7       30.36S WCI  27
SIREN          CLOUDY    34   8  33 CALM      30.34F
CUMBERLAND     CLOUDY    32  10  40 SE7       30.34S WCI  26
RICE LAKE      CLOUDY    33  11  39 CALM      30.37R
CHETEK         CLOUDY    33  10  38 SE5       30.36S WCI  29
LADYSMITH      PTCLDY    30  14  51 E6        30.38F WCI  24
EAU CLAIRE     CLOUDY    34   8  33 SE6       30.36F WCI  29
MENOMONIE      PTCLDY    35   9  33 SE6       30.37S WCI  30
NEW RICHMOND   CLOUDY    35  11  37 SE7       30.34F WCI  29
OSCEOLA        CLOUDY    36  12  37 SE7       30.36F WCI  30
$$

WIZ003>005-009-010-017-018-230300-
NORTH CENTRAL WISCONSIN

CITY           SKY/WX    TMP DP  RH WIND       PRES   REMARKS
MANITOWISH WTR CLEAR     27   7  41 SE5       30.37R WCI  22
ARBOR VITAE    CLEAR     32   9  38 S5        30.37S WCI  27
WOODRUFF       CLEAR     32   9  38 S5        30.37S WCI  27
RHINELANDER    CLEAR     30   7  37 S3        30.39S
EAGLE RIVER    CLEAR     28   4  37 SE3       30.38S
LAND O LAKES   CLEAR     28   6  38 SE3       30.39S
PHILLIPS       PTCLDY    28  12  51 SE5       30.37S WCI  23
TOMAHAWK       CLEAR     26   8  47 CALM      30.39F
MEDFORD        CLEAR     28  11  49 SE5       30.37F WCI  23
MERRILL        CLEAR     29   9  42 S3        30.41S
$$

WIZ029-030-035-036-043>047-230300-
CENTRAL WISCONSIN

CITY           SKY/WX    TMP DP  RH WIND       PRES   REMARKS
WAUSAU         CLEAR     29  10  45 SE7       30.41R WCI  22
MOSINEE        CLEAR     27  14  59 SE5       30.43R WCI  21
MARSHFIELD     CLEAR     30  10  43 SE8       30.39S WCI  22
STEVENS POINT  CLEAR     26  12  54 SE5       30.44R WCI  21
WAUPACA        CLEAR     29  16  58 E3        30.46S
WAUTOMA        CLEAR     26  16  65 CALM      30.45F
WISC RAPIDS    CLEAR     29  12  49 SE5       30.44S WCI  24
CAMP DOUGLAS   MOCLDY    28  14  54 E7        30.41F WCI  21
$$

WIZ011>013-019>022-031-037>040-048>050-230300-
NORTHEAST WISCONSIN

CITY           SKY/WX    TMP DP  RH WIND       PRES   REMARKS
ANTIGO         CLEAR     27  15  60 S8        30.42R WCI  18
SHAWANO        CLEAR     28  19  67 CALM      30.48R
OCONTO         CLEAR     25  18  76 S6        30.50S WCI  18
STURGEON BAY   CLEAR     23  17  78 SE5       30.51S WCI  17
GREEN BAY      CLEAR     27  21  78 SE8       30.50R WCI  19
MANITOWOC      CLOUDY    25  18  74 SE3       30.51F
APPLETON       MOCLDY    27  18  69 SE9       30.45S WCI  17
CLINTONVILLE   CLEAR     30  14  51 CALM      30.47R
OSHKOSH        CLEAR     27  19  72 SE8       30.47R WCI  19
$$

WIZ032>034-041-042-053>061-230300-
SOUTHWEST WISCONSIN

CITY           SKY/WX    TMP DP  RH WIND       PRES   REMARKS
LA CROSSE      PTCLDY    38  11  32 SE8       30.39F WCI  32
SPARTA         CLEAR     33  12  41 SE5       30.41S WCI  29
VIROQUA        PTCLDY    32  12  43 SE8       30.37F WCI  25
BOSCOBEL       CLEAR     31  14  49 SE3       30.41F
PRAIRIE DU CHI PTCLDY    34  14  42 E5        30.40S WCI  30
PLATTEVILLE    CLEAR     34  19  54 SE7       30.40F WCI  28
$$

WIZ056-057-062-063-064-067-068-230300-
SOUTH CENTRAL WISCONSIN

CITY           SKY/WX    TMP DP  RH WIND       PRES   REMARKS
REEDSBURG      CLEAR     32  15  48 CALM      30.42F
BARABOO/DELLS  CLEAR     31  18  58 E6        30.43S WCI  25
LONE ROCK      CLEAR     30  17  58 E7        30.43F WCI  23
MINERAL POINT  CLEAR     34  18  51 E6        30.41S WCI  29
MADISON        PTCLDY    32  17  54 SE12      30.44F WCI  23
MIDDLETON      CLEAR     35  20  54 SE8       30.44S WCI  28
WATERTOWN      PTCLDY    28  19  70 SE8       30.46F WCI  19
MONROE         CLEAR     32  19  59 E8        30.42F WCI  25
JANESVILLE     PTCLDY    30  19  64 SE14      30.46S WCI  20
$$

WIZ051-052-058>065-066-070>072-230300-
SOUTHEAST WISCONSIN

CITY           SKY/WX    TMP DP  RH WIND       PRES   REMARKS
MILWAUKEE      CLOUDY    27  17  66 E5        30.50S WCI  22
WAUKESHA       PTCLDY    25  18  74 E6        30.49S WCI  18
MILWAUKEE/TIMM CLEAR     27  16  63 E5        30.50F WCI  21
RACINE         PTCLDY    26  17  68 NE3       30.51F
KENOSHA        PTCLDY    24  18  77 CALM      30.50S
FOND DU LAC    CLEAR     28  18  66 SE12      30.47S WCI  18
SHEBOYGAN      CLEAR     25  16  68 SE3       30.50S
WEST BEND      CLEAR     25  19  80 CALM      30.49R
JUNEAU         PTCLDY    27  20  74 SE7       30.47S WCI  19
$$

LSZ147-162-230300-
LAKE SUPERIOR

STATION/POSITION TIME  TEMP    WIND        PRES    WAVE
                       AIR SEA DIR/SP/G            HT/PER
                 (UTC) (F)     (DEG/KT/KT) (MB)    (FT/S)
DEVILS ISLAND    0200   29     100/ 12/ 13 1030.2F
PORT WING        0140   29     120/  5/  9 1028.4F
SAXON HARBOR     0130   25     180/  2/  3 1028.8S
$$

LMZ867-665-643>646-230300-
LAKE MICHIGAN

STATION/POSITION TIME  TEMP    WIND        PRES    WAVE
                       AIR SEA DIR/SP/G            HT/PER
                 (UTC) (F)     (DEG/KT/KT) (MB)    (FT/S)
CHAMBERS ISLAND  0140   24     130/  4/  6 1032.2F
NORTHPORT PIER   0200   24     160/  1/  6 1032.8
SISTER BAY       0106   22        CALM       N/A
KEWAUNEE LAKESHO 0148   26     130/  5/  8 1032.5F
SHEBOYGAN LAKESH 0200   27     130/  4/  5 1033.8S
PORT WASHINGTON  0130   28     120/  5/  7 1033.5F
MILWAUKEE LAKESH 0150   28      90/  4/  6   N/A
KENOSHA   LAKESH 0200   29      80/  2/  5 1032.8
$$

TC  - TEMPERATURE IN CELSIUS
VSB - VISIBILITY IN STATUTE MILES
WCI - WIND CHILL INDEX
HX  - HEAT INDEX





USA.gov is the U.S. government's official web portal to all federal, state and local government web resources and services.